Regional Weather Roundup
Issued by NWS

Home | Current Version | Previous Version | Graphics & Text | Print | Product List | Glossary On
Versions: 1 2 3 4 5 6 7 8 9 10 11 12 13 14 15 16 17 18 19 20 21 22 23 24 25 26 27 28 29 30 31 32 33 34 35 36 37 38 39 40 41 42 43 44 45 46 47 48 49 50
000
ASUS43 KMPX 271810
RWRMN
WEATHER ROUNDUP FOR MINNESOTA
NATIONAL WEATHER SERVICE TWIN CITIES/CHANHASSEN MN
100 PM CDT WED MAY 27 2015


NOTE: "FAIR" INDICATES FEW OR NO CLOUDS BELOW 12,000 FEET WITH NO
SIGNIFICANT WEATHER AND/OR OBSTRUCTIONS TO VISIBILITY. N/A MEANS
CURRENT SKY AND/OR WEATHER CONDITIONS ARE NOT AVAILABLE.

MNZ060>063-068>070-271900-
   Twin Cities Metro

CITY           SKY/WX    TMP DP  RH WIND       PRES   REMARKS
TWIN CITIES    FAIR      76  58  53 W10       29.95R
6HR MIN TEMP:  57; 6HR MAX TEMP:  76;

ST PAUL        FAIR      76  57  51 SW12      29.95R
CRYSTAL        FAIR      77  58  51 VRB7      29.93S
BLAINE         SUNNY     79  59  50 SW8       29.94R
LAKEVILLE      FAIR      73  61  64 W8        29.96R
EDEN PRAIRIE   FAIR      75  60  59 SW8       29.95R
6HR MIN TEMP:  56; 6HR MAX TEMP:  75;

SOUTH ST PAUL  FAIR      76  57  50 SW8       29.95R
LAKE ELMO      FAIR      75  59  57 SW12      29.96S
$$
MNZ001>005-007-008-013>017-022>024-027-028-271900-
   Northwest Minnesota

CITY           SKY/WX    TMP DP  RH WIND       PRES   REMARKS
BEMIDJI        FAIR      76  49  38 NW10G18   29.94S
HALLOCK        FAIR      68  46  45 N12G20    29.97S
ROSEAU         FAIR      70  48  46 N10       29.95F
WARROAD        FAIR      70  52  52 NW9       29.96R
THIEF RVR FALL FAIR      72  48  43 N8        29.96S
CROOKSTON      FAIR      72  50  46 N10       29.97R
FOSSTON        FAIR      75  48  38 N5        29.96R
DETROIT LAKES  FAIR      75  50  41 N5        29.97R
MOORHEAD       FAIR      75  54  46 NW3       29.96R
PARK RAPIDS    FAIR      81  45  28 N7        29.94R
MAHNOMEN       FAIR      76  49  39 NW8       29.95R
$$
MNZ006-009>011-018-025>026-271900-
   North Central Minnesota

CITY           SKY/WX    TMP DP  RH WIND       PRES   REMARKS
BAUDETTE       FAIR      67  48  50 N14       29.95R
FLAG ISLAND    FAIR      63  46  55 NW10      29.95R
INTL FALLS     FAIR      76  49  38 NW10      29.90R
6HR MIN TEMP:  51; 6HR MAX TEMP:  77;

WASKISH        FAIR      70  57  64 SW8       29.94R
BIG FORK       FAIR     N/A N/A N/A N7        29.91R
LONGVILLE      FAIR      75  48  38 NW6       29.94R
GRAND RAPIDS   FAIR      75  50  41 NW13      29.92S
CRANE LAKE     FAIR      73  46  38 NW9       29.89R
ORR            FAIR      77  45  31 NW6       29.86R
COOK           FAIR      77  48  36 W8        29.88S
WALKER         FAIR      76  48  37 W12       29.93S
$$
MNZ012-019>021-037-271900-
   Northeast Minnesota

CITY           SKY/WX    TMP DP  RH WIND       PRES   REMARKS
DULUTH         FAIR      79  53  40 W9G20     29.88R
6HR MIN TEMP:  58; 6HR MAX TEMP:  79;

HIBBING        FAIR      79  47  32 NW14      29.89R
EVELETH        FAIR      77  46  33 NW9G17    29.89S
DULUTH HARBOR  FAIR      79  59  50 SW9       29.85S
TWO HARBORS    FAIR      82  55  39 W9G18     29.83R
SILVER BAY     FAIR      82  46  28 NW7       29.82S
G MARAIS ARPRT FAIR      75  43  31 W7G22     29.85R
$$
MNZ029>031-032-039>041-046>048-054>057-064-271900-
   West Central Minnesota

CITY           SKY/WX    TMP DP  RH WIND       PRES   REMARKS
FERGUS FALLS   FAIR      75  55  50 N5        29.96R
WHEATON        FAIR      77  55  47 W9        29.98R
MORRIS         FAIR      81  54  39 NW12      29.96R
ALEXANDRIA     FAIR      76  55  48 NW7       29.97S
ELBOW LAKE     FAIR      74  57  54 NW8       29.96S
WADENA         FAIR      77  57  50 NW8       29.95R
GLENWOOD       FAIR      79  52  38 W10       29.97S
APPLETON       FAIR      81  52  36 NW8       29.97R
BENSON         FAIR      81  48  32 N7        29.96S
ORTONVILLE     FAIR      79  48  34 NW8       29.98R
MADISON        FAIR      81  50  34 NW8       29.98S
WILLMAR        FAIR      81  55  41 W8        29.97S
$$
MNZ033>034-036-042>043-049>051-058-059-271900-
   Central Minnesota

CITY           SKY/WX    TMP DP  RH WIND       PRES   REMARKS
ST CLOUD       FAIR      77  55  46 W3        29.93S
6HR MIN TEMP:  53; 6HR MAX TEMP:  78;

SAUK CENTRE    FAIR      78  55  45 NW8       29.95S
PAYNESVILLE    FAIR      75  53  46 W8        29.96R
AITKIN         FAIR      79  55  44 CALM      29.91S
PINE RIVER     FAIR      77  52  41 NW8       29.97R
BRAINERD       FAIR      78  53  41 VRB3      29.93R
STAPLES        FAIR      79  52  38 NW9       29.94R
LONG PRAIRIE   FAIR      77  52  41 W6        29.96R
LITTLE FALLS   FAIR      77  52  41 W3        29.94R
LITCHFIELD     FAIR      79  57  47 W8        29.96S
BUFFALO        FAIR      76  58  52 W6        29.96R
MAPLE LAKE     FAIR      78  60  54 W7        29.95S
$$
MNZ037-044-045-052-053-271900-
   East Central Minnesota

CITY           SKY/WX    TMP DP  RH WIND       PRES   REMARKS
PRINCETON      FAIR      81  57  44 SW6       29.93S
MORA           FAIR      75  55  50 W7        29.93S
CAMBRIDGE      FAIR      79  61  53 S8        29.91S
RUSH CITY      FAIR      75  58  54 SW6       29.93R
MOOSE LAKE     FAIR      77  63  61 W5        29.89S
HINCKLEY       FAIR      77  59  53 SW5       29.91S
CLOQUET        FAIR      79  52  38 W9        29.89R
MCGREGOR       FAIR      77  54  44 W5        29.92R
$$
MNZ071>073-080-081-089-090-097-098-271900-
   Southwest Minnesota

CITY           SKY/WX    TMP DP  RH WIND       PRES   REMARKS
MONTEVIDEO     FAIR      81  55  41 NW7       29.98S
GRANITE FALLS  FAIR      80  55  41 W7        29.99S
CANBY          FAIR      79  52  38 NW8       30.00S
MARSHALL       FAIR      79  50  36 NW9       29.98S
REDWOOD FALLS  FAIR      80  56  43 W9        29.97S
OLIVIA         FAIR      73  54  49 W7        29.97S
PIPESTONE      FAIR      79  46  31 W9G16     30.03R
WINDOM         FAIR      79  54  41 W7        30.01R
WORTHINGTON    FAIR      79  50  36 W12       30.02S
JACKSON        FAIR      79  55  44 W10       30.02S
TRACY          FAIR      80  53  40 NW6       30.00S
SLAYTON        FAIR      78  49  36 W12G17    30.03R
$$
MNZ065>067-074>077-082>085-091>093-271900-
   South Central Minnesota

CITY           SKY/WX    TMP DP  RH WIND       PRES   REMARKS
MANKATO        FAIR      75  57  53 W12       29.98S
NEW ULM        FAIR      75  59  57 W12       29.98S
ST JAMES       FAIR      79  61  53 W10       30.00R
FAIRMONT       FAIR      79  55  44 W9        30.00S
GLENCOE        FAIR      77  62  60 W8        29.96R
FARIBAULT      FAIR      75  61  60 SW8       29.98S
OWATONNA       FAIR      75  59  57 SW9G16    29.99R
WASECA         FAIR      73  61  64 SW12      30.01R
ALBERT LEA     FAIR      75  57  53 SW9       30.00S
$$
MNZ078>079-086>088-094>096-271900-
   Southeast Minnesota

CITY           SKY/WX    TMP DP  RH WIND       PRES   REMARKS
ROCHESTER      FAIR      74  61  63 SW15      30.00S
6HR MIN TEMP:  56; 6HR MAX TEMP:  74;

RED WING       FAIR      77  57  50 SW9       29.95R
STANTON        FAIR      76  59  55 W9G16     29.96R
DODGE CENTER   FAIR      75  59  57 SW12      29.99S
WINONA         FAIR      73  57  56 SW8       29.98R
AUSTIN         FAIR      73  57  56 SW13      30.00S
PRESTON        FAIR      72  58  60 SW10      30.01S
$$
ABBREVIATIONS USED IN REMARKS
   TC - TEMPERATURES IN CELSIUS
  WCI - WIND CHILL INDEX
   HX - HEAT INDEX
  VSB - VISIBILITY
$$


USA.gov is the U.S. government's official web portal to all federal, state and local government web resources and services.